EVA211 RCTP-VTBS

Flight info

Callsign EVA211
Flight time 1h 50m
Altitude 36000
Route CHALI1A CHALI T3 MKG A1 KADLO T1 KAPLI DCT MADRU DCT SULUX/N0483F380 DCT IGLEG DCT IKELA/K0893F380 A1 PAPRA/N0480F380 A1 UBL Y20 GRASO Y13 RUKSA EASTE1C
Aircraft B77W/H-SDE1E2E3FGHIJ1J3J4J5LM1P2RWXYZ/LB1D1

Departure

Time 2026-05-05 15:02
Airport Taiwan Taoyuan International Airport (RCTP)

Arrival

Time 2026-05-05 16:52
Airport Suvarnabhumi Airport (VTBS)
Time Latitude Longitude Altitude Speed Heading
2026-05-05 14:27 25.07412 121.23213 94 ft 0 kts 318°
2026-05-05 14:40 25.07411 121.23214 91 ft 2 kts 318°
2026-05-05 14:40 25.07392 121.23232 93 ft 4 kts 319°
2026-05-05 14:40 25.07373 121.23251 92 ft 3 kts 319°
2026-05-05 14:41 25.07356 121.23268 93 ft 4 kts 309°
2026-05-05 14:41 25.07341 121.23292 93 ft 4 kts 296°
2026-05-05 14:41 25.07332 121.23317 91 ft 1 kts 290°
2026-05-05 14:41 25.07332 121.23318 91 ft 2 kts 290°
2026-05-05 14:54 25.07324 121.23279 93 ft 7 kts 239°
2026-05-05 14:55 25.07292 121.23238 94 ft 7 kts 229°
2026-05-05 14:55 25.07251 121.23196 95 ft 13 kts 212°
2026-05-05 14:55 25.07174 121.23207 94 ft 11 kts 148°
2026-05-05 14:55 25.07116 121.23258 96 ft 11 kts 145°
2026-05-05 14:56 25.07048 121.23250 94 ft 10 kts 218°
2026-05-05 14:56 25.06958 121.23145 95 ft 25 kts 226°
2026-05-05 14:56 25.06846 121.22997 97 ft 25 kts 230°
2026-05-05 14:56 25.06746 121.22868 96 ft 19 kts 229°
2026-05-05 14:57 25.06658 121.22757 97 ft 19 kts 229°
2026-05-05 14:57 25.06569 121.22646 96 ft 19 kts 229°
2026-05-05 14:57 25.06481 121.22535 99 ft 19 kts 229°
2026-05-05 14:57 25.06392 121.22425 98 ft 19 kts 229°
2026-05-05 14:58 25.06307 121.22311 100 ft 19 kts 231°
2026-05-05 14:58 25.06208 121.22265 98 ft 8 kts 160°
2026-05-05 14:58 25.06207 121.22265 101 ft 0 kts 159°
2026-05-05 14:58 25.06254 121.22265 100 ft 11 kts 206°
2026-05-05 14:59 25.06284 121.22289 99 ft 9 kts 216°
2026-05-05 14:59 25.06282 121.22300 98 ft 8 kts 167°
2026-05-05 14:59 25.06237 121.22351 100 ft 9 kts 129°
2026-05-05 14:59 25.06185 121.22424 100 ft 14 kts 118°
2026-05-05 15:00 25.06207 121.22513 98 ft 0 kts 47°
2026-05-05 15:01 25.06208 121.22514 98 ft 4 kts 47°
2026-05-05 15:01 25.06407 121.22776 97 ft 98 kts 53°
2026-05-05 15:02 25.07102 121.23672 165 ft 202 kts 50°
2026-05-05 15:02 25.08099 121.24917 1310 ft 229 kts 49°
2026-05-05 15:02 25.09238 121.26193 2977 ft 242 kts 47°
2026-05-05 15:02 25.10363 121.27635 3846 ft 256 kts 51°
2026-05-05 15:03 25.11508 121.29202 4640 ft 267 kts 51°
2026-05-05 15:03 25.12897 121.30571 5428 ft 273 kts 22°
2026-05-05 15:03 25.14736 121.30922 6396 ft 269 kts 348°
2026-05-05 15:03 25.16434 121.30198 7394 ft 260 kts 320°
2026-05-05 15:04 25.17714 121.28818 8312 ft 258 kts 305°
2026-05-05 15:04 25.18847 121.27259 9252 ft 262 kts 304°
2026-05-05 15:04 25.19976 121.25671 10254 ft 263 kts 303°
2026-05-05 15:04 25.21111 121.24070 11167 ft 267 kts 303°
2026-05-05 15:05 25.23589 121.20578 11960 ft 318 kts 303°
2026-05-05 15:05 25.25024 121.18572 12185 ft 347 kts 303°
2026-05-05 15:05 25.26414 121.16365 12618 ft 353 kts 291°
2026-05-05 15:06 25.27006 121.13745 13440 ft 353 kts 270°
2026-05-05 15:06 25.26737 121.11073 14408 ft 351 kts 254°
2026-05-05 15:06 25.25832 121.08576 15312 ft 353 kts 239°
2026-05-05 15:06 25.24285 121.06448 16137 ft 359 kts 229°
2026-05-05 15:07 25.22586 121.04406 16985 ft 363 kts 229°
2026-05-05 15:07 25.20918 121.02342 17822 ft 367 kts 230°
2026-05-05 15:07 25.19139 121.00245 18621 ft 372 kts 226°
2026-05-05 15:07 25.17261 120.98276 19346 ft 376 kts 225°
2026-05-05 15:08 25.16460 120.97448 19631 ft 377 kts 225°
2026-05-05 15:08 25.14570 120.95474 20339 ft 381 kts 226°
2026-05-05 15:08 25.12646 120.93435 21051 ft 385 kts 227°
2026-05-05 15:08 25.10714 120.91359 21624 ft 392 kts 227°
2026-05-05 15:09 25.09392 120.89930 22033 ft 396 kts 227°
2026-05-05 15:09 25.07420 120.87797 22718 ft 399 kts 227°
2026-05-05 15:09 25.05431 120.85647 23431 ft 401 kts 227°
2026-05-05 15:09 25.02775 120.82780 24184 ft 406 kts 227°
2026-05-05 15:10 25.01410 120.81308 24548 ft 408 kts 227°
2026-05-05 15:10 24.99371 120.79111 25079 ft 411 kts 227°
2026-05-05 15:10 24.97316 120.76898 25629 ft 414 kts 227°
2026-05-05 15:10 24.95246 120.74671 26170 ft 417 kts 227°
2026-05-05 15:11 24.93162 120.72430 26705 ft 421 kts 227°
2026-05-05 15:11 24.91060 120.70170 27219 ft 424 kts 227°
2026-05-05 15:11 24.88942 120.67895 27737 ft 427 kts 227°
2026-05-05 15:11 24.86807 120.65602 28239 ft 430 kts 227°
2026-05-05 15:12 24.84659 120.63296 28727 ft 433 kts 227°
2026-05-05 15:12 24.82491 120.60970 29205 ft 436 kts 227°
2026-05-05 15:12 24.80312 120.58634 29661 ft 439 kts 227°
2026-05-05 15:12 24.78118 120.56282 30089 ft 442 kts 227°
2026-05-05 15:13 24.75939 120.53947 30432 ft 444 kts 227°
2026-05-05 15:13 24.73717 120.51569 30775 ft 446 kts 227°
2026-05-05 15:13 24.71369 120.49322 31094 ft 451 kts 221°
2026-05-05 15:13 24.68782 120.47337 31368 ft 455 kts 218°
2026-05-05 15:14 24.66129 120.45418 31629 ft 458 kts 217°
2026-05-05 15:14 24.63472 120.43502 32063 ft 455 kts 218°
2026-05-05 15:14 24.60847 120.41578 32593 ft 451 kts 218°
2026-05-05 15:14 24.58260 120.39649 33096 ft 448 kts 219°
2026-05-05 15:15 24.55693 120.37711 33513 ft 447 kts 219°
2026-05-05 15:15 24.53131 120.35771 33901 ft 447 kts 219°
2026-05-05 15:15 24.50578 120.33837 34281 ft 445 kts 219°
2026-05-05 15:15 24.48034 120.31915 34645 ft 443 kts 219°
2026-05-05 15:16 24.45496 120.30000 35003 ft 442 kts 220°
2026-05-05 15:16 24.42976 120.28074 35273 ft 441 kts 220°
2026-05-05 15:16 24.40472 120.26135 35578 ft 440 kts 220°
2026-05-05 15:16 24.37979 120.24195 35933 ft 438 kts 220°
2026-05-05 15:17 24.35501 120.22268 36303 ft 436 kts 220°
2026-05-05 15:17 24.33032 120.20352 36573 ft 434 kts 220°
2026-05-05 15:17 24.30568 120.18443 36775 ft 434 kts 220°
2026-05-05 15:17 24.28101 120.16533 36984 ft 434 kts 220°
2026-05-05 15:18 24.25639 120.14630 37222 ft 433 kts 220°
2026-05-05 15:18 24.23184 120.12734 37479 ft 431 kts 221°
2026-05-05 15:18 24.20734 120.10842 37667 ft 431 kts 221°
2026-05-05 15:19 24.15813 120.07042 37889 ft 434 kts 221°
2026-05-05 15:19 24.10875 120.03226 38007 ft 434 kts 221°
2026-05-05 15:20 24.05958 119.99420 38013 ft 432 kts 221°
2026-05-05 15:20 24.01061 119.95636 38020 ft 430 kts 221°
2026-05-05 15:21 23.96175 119.91868 38010 ft 429 kts 221°
2026-05-05 15:21 23.91296 119.88113 38013 ft 429 kts 221°
2026-05-05 15:22 23.86414 119.84356 38017 ft 430 kts 221°
2026-05-05 15:22 23.81514 119.80586 38021 ft 432 kts 221°
2026-05-05 15:23 23.76590 119.76803 38022 ft 434 kts 221°
2026-05-05 15:23 23.71637 119.73001 38017 ft 436 kts 221°
2026-05-05 15:24 23.66699 119.69215 38019 ft 438 kts 221°
2026-05-05 15:24 23.61852 119.65229 38019 ft 433 kts 228°
2026-05-05 15:25 23.57781 119.60449 38029 ft 429 kts 235°
2026-05-05 15:25 23.54440 119.55118 38028 ft 425 kts 241°
2026-05-05 15:26 23.51310 119.49647 37985 ft 426 kts 242°
2026-05-05 15:26 23.48171 119.44178 38006 ft 426 kts 241°
2026-05-05 15:27 23.45008 119.38713 38014 ft 427 kts 241°
2026-05-05 15:27 23.41830 119.33244 38012 ft 428 kts 241°
2026-05-05 15:28 23.38643 119.27769 38008 ft 428 kts 241°
2026-05-05 15:28 23.35449 119.22288 38010 ft 429 kts 241°
2026-05-05 15:29 23.32249 119.16801 38012 ft 430 kts 241°
2026-05-05 15:29 23.29043 119.11309 38025 ft 430 kts 241°
2026-05-05 15:30 23.25829 119.05811 38012 ft 431 kts 241°
2026-05-05 15:30 23.22612 119.00312 38019 ft 431 kts 241°
2026-05-05 15:31 23.19388 118.94807 38012 ft 432 kts 242°
2026-05-05 15:31 23.16157 118.89296 38024 ft 433 kts 242°
2026-05-05 15:32 23.12917 118.83777 38009 ft 433 kts 242°
2026-05-05 15:32 23.09671 118.78252 37986 ft 434 kts 241°
2026-05-05 15:33 23.06420 118.72726 38007 ft 434 kts 241°
2026-05-05 15:33 23.03169 118.67204 38015 ft 435 kts 241°
2026-05-05 15:34 22.99908 118.61668 38016 ft 436 kts 242°
2026-05-05 15:34 22.96325 118.56333 38010 ft 444 kts 231°
2026-05-05 15:35 22.91617 118.51917 38014 ft 453 kts 221°
2026-05-05 15:35 22.86077 118.48495 37986 ft 460 kts 214°
2026-05-05 15:36 22.80420 118.45246 38007 ft 460 kts 214°
2026-05-05 15:36 22.74796 118.41944 38016 ft 460 kts 215°
2026-05-05 15:37 22.69220 118.38641 38010 ft 460 kts 215°
2026-05-05 15:37 22.63558 118.35304 38005 ft 461 kts 215°
2026-05-05 15:38 22.57918 118.31998 38015 ft 461 kts 215°
2026-05-05 15:38 22.52270 118.28689 38009 ft 462 kts 215°
2026-05-05 15:39 22.46615 118.25374 38007 ft 463 kts 215°
2026-05-05 15:39 22.40953 118.22059 38010 ft 463 kts 215°
2026-05-05 15:40 22.35292 118.18740 37982 ft 463 kts 215°
2026-05-05 15:40 22.29636 118.15417 37999 ft 463 kts 215°
2026-05-05 15:41 22.24013 118.12122 38004 ft 463 kts 214°
2026-05-05 15:41 22.18346 118.08816 38015 ft 463 kts 214°
2026-05-05 15:42 22.12674 118.05513 37999 ft 464 kts 215°
2026-05-05 15:42 22.06992 118.02204 37994 ft 464 kts 214°
2026-05-05 15:43 22.01303 117.98892 38004 ft 465 kts 214°
2026-05-05 15:43 21.95599 117.95575 38004 ft 467 kts 214°
2026-05-05 15:44 21.89875 117.92250 38003 ft 468 kts 214°
2026-05-05 15:44 21.84143 117.88923 38001 ft 469 kts 214°
2026-05-05 15:45 21.78399 117.85592 37991 ft 469 kts 214°
2026-05-05 15:45 21.72652 117.82263 37994 ft 469 kts 214°
2026-05-05 15:46 21.66896 117.78931 38000 ft 470 kts 214°
2026-05-05 15:46 21.61137 117.75601 37992 ft 470 kts 214°
2026-05-05 15:47 21.55371 117.72269 37976 ft 470 kts 214°
2026-05-05 15:47 21.49612 117.68945 37987 ft 470 kts 214°
2026-05-05 15:48 21.43846 117.65619 37985 ft 470 kts 214°
2026-05-05 15:48 21.38121 117.62320 37984 ft 470 kts 214°
2026-05-05 15:49 21.32315 117.58977 37983 ft 470 kts 214°
2026-05-05 15:49 21.26588 117.55682 37978 ft 470 kts 213°
2026-05-05 15:50 21.20992 117.52170 37971 ft 459 kts 226°
2026-05-05 15:50 21.18926 117.49638 37982 ft 449 kts 241°
2026-05-05 15:50 21.17517 117.46680 37994 ft 445 kts 251°
2026-05-05 15:50 21.16619 117.43523 37978 ft 442 kts 262°
2026-05-05 15:51 21.16427 117.40265 37996 ft 437 kts 271°
2026-05-05 15:51 21.16477 117.33720 37987 ft 441 kts 271°
2026-05-05 15:52 21.16442 117.27133 37986 ft 444 kts 270°
2026-05-05 15:52 21.16273 117.20508 37980 ft 446 kts 265°
2026-05-05 15:53 21.14942 117.13992 37990 ft 450 kts 255°
2026-05-05 15:53 21.12518 117.07775 37983 ft 454 kts 247°
2026-05-05 15:54 21.09692 117.01723 37958 ft 454 kts 246°
2026-05-05 15:54 21.06863 116.95675 37972 ft 454 kts 246°
2026-05-05 15:55 21.04063 116.89621 37978 ft 454 kts 247°
2026-05-05 15:55 21.01273 116.83556 37980 ft 454 kts 247°
2026-05-05 15:56 20.98956 116.78515 37975 ft 454 kts 247°
2026-05-05 15:56 20.96166 116.72454 37976 ft 454 kts 247°
2026-05-05 15:57 20.93370 116.66389 37971 ft 454 kts 247°
2026-05-05 15:57 20.90573 116.60330 37975 ft 454 kts 247°
2026-05-05 15:58 20.87776 116.54276 37951 ft 454 kts 247°
2026-05-05 15:58 20.84972 116.48218 37974 ft 455 kts 247°
2026-05-05 15:59 20.82164 116.42154 37973 ft 456 kts 247°
2026-05-05 15:59 20.79349 116.36084 37971 ft 456 kts 247°
2026-05-05 16:00 20.76527 116.30005 37970 ft 457 kts 247°
2026-05-05 16:00 20.73701 116.23926 37978 ft 457 kts 247°
2026-05-05 16:01 20.70870 116.17843 37970 ft 457 kts 247°
2026-05-05 16:01 20.68039 116.11762 37966 ft 457 kts 247°
2026-05-05 16:02 20.65202 116.05680 37959 ft 457 kts 247°
2026-05-05 16:02 20.62362 115.99595 37969 ft 458 kts 247°
2026-05-05 16:03 20.59534 115.93546 37965 ft 459 kts 247°
2026-05-05 16:03 20.56679 115.87443 37966 ft 460 kts 247°
2026-05-05 16:04 20.53815 115.81329 37965 ft 461 kts 247°
2026-05-05 16:04 20.50948 115.75214 37961 ft 461 kts 247°
2026-05-05 16:05 20.48076 115.69099 37959 ft 461 kts 247°
2026-05-05 16:05 20.45204 115.62987 37964 ft 461 kts 247°
2026-05-05 16:06 20.42329 115.56877 37952 ft 461 kts 247°
2026-05-05 16:06 20.39451 115.50765 37964 ft 462 kts 247°
2026-05-05 16:07 20.36567 115.44646 37959 ft 462 kts 247°
2026-05-05 16:07 20.33676 115.38522 37961 ft 463 kts 247°
2026-05-05 16:08 20.30780 115.32397 37960 ft 463 kts 247°
2026-05-05 16:08 20.27882 115.26268 37958 ft 463 kts 247°
2026-05-05 16:09 20.24984 115.20146 37957 ft 463 kts 247°
2026-05-05 16:09 20.22105 115.14070 37959 ft 463 kts 247°
2026-05-05 16:10 20.19207 115.07959 37957 ft 462 kts 247°
2026-05-05 16:10 20.16308 115.01853 37956 ft 462 kts 247°
2026-05-05 16:11 20.13408 114.95753 37957 ft 462 kts 247°
2026-05-05 16:12 19.77310 114.20364 37967 ft 466 kts 246°
2026-05-05 16:13 19.17595 112.97781 37940 ft 467 kts 245°
2026-05-05 16:13 18.93609 112.49260 37916 ft 465 kts 245°
2026-05-05 16:14 18.28059 111.64363 38024 ft 485 kts 239°
2026-05-05 16:15 17.98280 111.17777 37849 ft 471 kts 238°
2026-05-05 16:15 17.69573 110.73177 37969 ft 464 kts 238°
2026-05-05 16:16 17.40066 110.27636 37986 ft 478 kts 238°
2026-05-05 16:16 17.10720 109.81928 37862 ft 465 kts 238°
2026-05-05 16:17 16.81899 109.37335 37989 ft 467 kts 238°
2026-05-05 16:17 16.67216 109.14609 38011 ft 476 kts 238°
2026-05-05 16:18 16.37193 108.69178 37875 ft 470 kts 237°
2026-05-05 16:18 16.22777 108.46887 37853 ft 460 kts 238°
2026-05-05 16:18 15.99688 107.99778 38032 ft 467 kts 256°
2026-05-05 16:19 15.92374 107.73494 38053 ft 478 kts 255°
2026-05-05 16:19 15.71562 106.94688 37922 ft 465 kts 258°
2026-05-05 16:20 15.60006 106.41688 38016 ft 479 kts 257°
2026-05-05 16:20 15.48067 105.87702 37846 ft 476 kts 257°
2026-05-05 16:22 15.21903 104.53694 37959 ft 489 kts 265°
2026-05-05 16:22 15.17178 103.98266 37824 ft 475 kts 265°
2026-05-05 16:23 15.04630 103.45421 37973 ft 484 kts 251°
2026-05-05 16:23 14.79038 102.65253 37837 ft 482 kts 253°
2026-05-05 16:24 14.68807 102.32035 39600 ft 478 kts 252°
2026-05-05 16:24 14.66793 102.25512 37786 ft 478 kts 253°
2026-05-05 16:25 14.65775 102.22221 37256 ft 483 kts 253°
2026-05-05 16:25 14.63716 102.15571 35805 ft 490 kts 252°
2026-05-05 16:25 14.62678 102.12220 35117 ft 490 kts 252°
2026-05-05 16:26 14.60595 102.05508 33767 ft 491 kts 252°
2026-05-05 16:26 14.58499 101.98757 32291 ft 497 kts 252°
2026-05-05 16:27 14.57439 101.95344 31585 ft 501 kts 252°
2026-05-05 16:27 14.56356 101.91913 30893 ft 504 kts 251°
2026-05-05 16:27 14.55092 101.88542 30212 ft 502 kts 248°
2026-05-05 16:27 14.53760 101.85225 29472 ft 499 kts 248°
2026-05-05 16:28 14.52423 101.81945 28697 ft 494 kts 248°
2026-05-05 16:28 14.51099 101.78697 27957 ft 488 kts 248°
2026-05-05 16:28 14.49796 101.75482 27216 ft 483 kts 248°
2026-05-05 16:28 14.48512 101.72298 26507 ft 478 kts 248°
2026-05-05 16:29 14.47246 101.69144 25797 ft 474 kts 248°
2026-05-05 16:29 14.45993 101.66019 25130 ft 469 kts 248°
2026-05-05 16:29 14.44752 101.62920 24462 ft 465 kts 248°
2026-05-05 16:29 14.43520 101.59848 23823 ft 462 kts 248°
2026-05-05 16:30 14.42297 101.56799 23104 ft 458 kts 248°
2026-05-05 16:30 14.41083 101.53776 22346 ft 454 kts 248°
2026-05-05 16:30 14.39879 101.50778 21610 ft 451 kts 248°
2026-05-05 16:30 14.38684 101.47803 20894 ft 448 kts 248°
2026-05-05 16:31 14.37495 101.44845 20180 ft 445 kts 248°
2026-05-05 16:31 14.36315 101.41911 19478 ft 441 kts 248°
2026-05-05 16:31 14.35142 101.38996 18817 ft 438 kts 248°
2026-05-05 16:31 14.33981 101.36111 18370 ft 430 kts 248°
2026-05-05 16:32 14.32854 101.33312 18166 ft 418 kts 248°
2026-05-05 16:32 14.31752 101.30585 17977 ft 415 kts 246°
2026-05-05 16:32 14.30287 101.27991 17731 ft 423 kts 230°
2026-05-05 16:32 14.28111 101.25993 17315 ft 416 kts 217°
2026-05-05 16:33 14.25813 101.24189 16977 ft 414 kts 218°
2026-05-05 16:33 14.23560 101.22362 16621 ft 409 kts 218°
2026-05-05 16:33 14.21356 101.20533 16278 ft 405 kts 219°
2026-05-05 16:33 14.19174 101.18702 15946 ft 403 kts 219°
2026-05-05 16:34 14.17011 101.16879 15605 ft 401 kts 219°
2026-05-05 16:34 14.14859 101.15065 15276 ft 399 kts 219°
2026-05-05 16:34 14.12714 101.13261 14957 ft 397 kts 219°
2026-05-05 16:34 14.10579 101.11467 14630 ft 395 kts 219°
2026-05-05 16:35 14.08451 101.09678 14305 ft 394 kts 219°
2026-05-05 16:35 14.06331 101.07898 13996 ft 393 kts 219°
2026-05-05 16:35 14.04274 101.06169 13625 ft 366 kts 219°
2026-05-05 16:35 14.02385 101.04581 13227 ft 337 kts 218°
2026-05-05 16:36 14.00631 101.03108 12924 ft 313 kts 218°
2026-05-05 16:36 13.98964 101.01709 12923 ft 310 kts 218°
2026-05-05 16:36 13.97263 101.00283 12922 ft 319 kts 218°
2026-05-05 16:36 13.95542 100.98840 12911 ft 318 kts 218°
2026-05-05 16:37 13.93837 100.97410 12888 ft 314 kts 218°
2026-05-05 16:37 13.92153 100.95996 12908 ft 312 kts 218°
2026-05-05 16:37 13.90470 100.94585 12911 ft 313 kts 218°
2026-05-05 16:37 13.88784 100.93170 12912 ft 313 kts 218°
2026-05-05 16:38 13.87093 100.91753 12886 ft 314 kts 218°
2026-05-05 16:38 13.85386 100.90322 12681 ft 317 kts 218°
2026-05-05 16:38 13.83659 100.88925 12372 ft 313 kts 212°
2026-05-05 16:38 13.81677 100.88074 12061 ft 307 kts 192°
2026-05-05 16:39 13.79601 100.87579 11794 ft 306 kts 193°
2026-05-05 16:39 13.77537 100.87040 11509 ft 306 kts 194°
2026-05-05 16:39 13.75475 100.86481 11231 ft 306 kts 194°
2026-05-05 16:39 13.73419 100.85918 11008 ft 304 kts 194°
2026-05-05 16:40 13.71400 100.85365 10961 ft 297 kts 194°
2026-05-05 16:40 13.69403 100.84818 10920 ft 298 kts 194°
2026-05-05 16:40 13.67388 100.84267 10916 ft 301 kts 194°
2026-05-05 16:40 13.65352 100.83710 10857 ft 305 kts 194°
2026-05-05 16:41 13.63283 100.83144 10505 ft 310 kts 194°
2026-05-05 16:41 13.61229 100.82582 9899 ft 300 kts 194°
2026-05-05 16:41 13.59245 100.82039 9255 ft 291 kts 194°
2026-05-05 16:41 13.57308 100.81509 8612 ft 285 kts 194°
2026-05-05 16:42 13.55373 100.80980 8009 ft 294 kts 194°
2026-05-05 16:42 13.53361 100.80430 7412 ft 304 kts 194°
2026-05-05 16:42 13.51292 100.79865 6816 ft 311 kts 194°
2026-05-05 16:42 13.49181 100.79288 6223 ft 317 kts 195°
2026-05-05 16:43 13.47029 100.78699 5603 ft 322 kts 194°
2026-05-05 16:43 13.44847 100.78102 4988 ft 327 kts 194°
2026-05-05 16:43 13.42666 100.77503 4372 ft 330 kts 194°
2026-05-05 16:43 13.40434 100.76891 3742 ft 333 kts 194°
2026-05-05 16:44 13.38193 100.76278 3283 ft 331 kts 194°
2026-05-05 16:44 13.36087 100.75572 3049 ft 304 kts 208°
2026-05-05 16:44 13.34680 100.74162 2987 ft 271 kts 240°
2026-05-05 16:44 13.34046 100.72342 2998 ft 275 kts 257°
2026-05-05 16:45 13.33746 100.70406 2989 ft 274 kts 264°
2026-05-05 16:45 13.33859 100.68492 2965 ft 268 kts 289°
2026-05-05 16:45 13.34950 100.66974 2985 ft 270 kts 326°
2026-05-05 16:45 13.36712 100.66399 2993 ft 270 kts
2026-05-05 16:46 13.38459 100.66950 2988 ft 262 kts 31°
2026-05-05 16:46 13.40039 100.67915 2988 ft 268 kts 28°
2026-05-05 16:46 13.41749 100.68699 2989 ft 270 kts 21°
2026-05-05 16:46 13.42915 100.69132 2989 ft 269 kts 18°
2026-05-05 16:47 13.44714 100.69671 2988 ft 269 kts 15°
2026-05-05 16:47 13.46527 100.70146 2989 ft 269 kts 14°
2026-05-05 16:47 13.48314 100.70609 2974 ft 255 kts 14°
2026-05-05 16:47 13.49942 100.71036 2949 ft 227 kts 15°
2026-05-05 16:48 13.51391 100.71418 2753 ft 211 kts 15°
2026-05-05 16:48 13.52760 100.71779 2544 ft 195 kts 14°
2026-05-05 16:48 13.54029 100.72114 2311 ft 181 kts 14°
2026-05-05 16:48 13.55198 100.72422 2052 ft 167 kts 14°
2026-05-05 16:49 13.56329 100.72721 1838 ft 169 kts 14°
2026-05-05 16:49 13.57463 100.73019 1632 ft 167 kts 14°
2026-05-05 16:49 13.58583 100.73309 1373 ft 165 kts 14°
2026-05-05 16:49 13.59693 100.73601 1157 ft 164 kts 14°
2026-05-05 16:50 13.60798 100.73886 918 ft 164 kts 14°
2026-05-05 16:50 13.61916 100.74178 655 ft 167 kts 14°
2026-05-05 16:50 13.63025 100.74480 561 ft 162 kts 15°
2026-05-05 16:50 13.64112 100.74769 368 ft 163 kts 13°
2026-05-05 16:51 13.65209 100.75052 159 ft 161 kts 14°
2026-05-05 16:51 13.66270 100.75340 34 ft 149 kts 13°
2026-05-05 16:51 13.67186 100.75581 14 ft 122 kts 14°
2026-05-05 16:51 13.67889 100.75764 11 ft 87 kts 14°
2026-05-05 16:52 13.68367 100.75892 14 ft 59 kts 14°
2026-05-05 16:52 13.68680 100.75975 15 ft 41 kts 14°
2026-05-05 16:52 13.68902 100.76033 15 ft 28 kts 14°
2026-05-05 16:52 13.69045 100.76041 13 ft 16 kts 329°
2026-05-05 16:53 13.69080 100.75959 13 ft 12 kts 283°
2026-05-05 16:53 13.69089 100.75919 13 ft 0 kts 283°
2026-05-05 16:56 13.69090 100.75916 13 ft 1 kts 283°
2026-05-05 16:56 13.69094 100.75896 13 ft 4 kts 284°
2026-05-05 16:56 13.69115 100.75818 13 ft 15 kts 285°
2026-05-05 16:56 13.69144 100.75709 13 ft 16 kts 285°
2026-05-05 16:57 13.69195 100.75613 13 ft 14 kts 296°
2026-05-05 16:57 13.69214 100.75541 13 ft 8 kts 284°
2026-05-05 16:57 13.69216 100.75531 13 ft 2 kts 284°
2026-05-05 16:57 13.69218 100.75525 13 ft 0 kts 284°
2026-05-05 16:58 13.69215 100.75537 13 ft 0 kts 284°
2026-05-05 16:58 13.69216 100.75533 13 ft 0 kts 284°
2026-05-05 17:02 13.69216 100.75534 13 ft 0 kts 284°